Weather in Peschanoye

Russia / Astrakhan Oblast     45°48′26″N   47°19′40″E
temp.,
°C
wind,
m/s
gust,
m/s
humid.,
%
clouds,
%
prec.,
mm/h
press.,
hPa
HPBL,
m
1 august, sun
sun101:00+25sse3561100 0.0 1011112
04:00+24se226767 0.0 101121
07:00+26se356176 0.0 1011221
10:00+32sse45364 0.0 10121226
13:00+34se55325 0.4 10111638
16:00+35se65280 0.4 10101619
19:00+32se56300 0.0 1010708
22:00+27sse35480 0.0 1011104
2 august, mon
mon201:00+26sse22555 0.0 101116
04:00+27ese234995 0.0 101150
07:00+27e34445 0.0 1011134
10:00+34ese452399 0.0 1012936
13:00+35se5620100 0.0 1011952
16:00+38se661394 0.0 10101817
19:00+35se551799 0.0 1010505
22:00+28se345096 0.0 101163
3 august, tue
tue301:00+27sse335142 0.0 101037
04:00+26sse23435 0.0 101011
07:00+28w11384 0.0 101111
10:00+35se34160 0.0 1011833
13:00+39se66110 0.0 10111988
16:00+39se65100 0.0 10102184
19:00+36se55130 0.0 1010563
22:00+29se45340 0.0 101169
4 august, wed
wed401:00+27ssw46430 0.0 101073
04:00+26ssw33420 0.0 101014
07:00+28s23350 0.0 101159
10:00+36s34170 0.0 1011732
13:00+40s44100 0.0 10102846
16:00+41sse75105 0.0 10093640
19:00+36sse77155 0.0 1010479
22:00+29ssw34354 0.0 101146
5 august, thu
thu501:00+28ssw223718 0.0 101117
04:00+27ene23351 0.0 101013
07:00+27nne364016 0.0 1011181
10:00+32n91033100 0.0 10131303
13:00+31ne6834100 0.0 1013792
16:00+33nnw543267 0.0 10131464
19:00+33nw13290 0.0 10122168
22:00+28ene35407 0.0 101388